22-08-2023, 00:00:08,    203,    0.1,   13.0,   0.00,   0.00, 1017.2,    0.3, -999.0
22-08-2023, 00:00:18,    203,    0.0,   13.0,   0.00,   0.00, 1017.1,    0.1, -999.0
22-08-2023, 00:00:28,    203,    0.0,   13.1,   0.00,   0.00, 1017.1,    0.2, -999.0
22-08-2023, 00:00:38,    203,    0.0,   13.0,   0.00,   0.00, 1017.2,    0.2, -999.0
22-08-2023, 00:00:48,    203,    0.0,   13.0,   0.00,   0.00, 1017.2,    0.3, -999.0
22-08-2023, 00:00:58,    204,    0.0,   13.0,   0.00,   0.00, 1017.2,    0.2, -999.0
22-08-2023, 00:01:08,    204,    0.0,   12.9,   0.00,   0.00, 1017.2,    0.2, -999.0
22-08-2023, 00:01:18,    203,    0.0,   13.0,   0.00,   0.00, 1017.1,    0.4, -999.0
22-08-2023, 00:01:27,    204,    0.0,   13.0,   0.00,   0.00, 1017.1,    0.2, -999.0
22-08-2023, 00:01:37,    204,    0.0,   13.0,   0.00,   0.00, 1017.2,    0.3, -999.0
22-08-2023, 00:01:48,    204,    0.0,   13.0,   0.00,   0.00, 1017.1,    0.2, -999.0
22-08-2023, 00:01:58,    204,    0.0,   13.0,   0.00,   0.00, 1017.2,    0.3, -999.0
22-08-2023, 00:02:07,    205,    0.0,   13.0,   0.00,   0.00, 1017.1,    0.2, -999.0
22-08-2023, 00:02:18,    205,    0.1,   13.0,   0.00,   0.00, 1017.2,    0.3, -999.0
22-08-2023, 00:02:28,    205,    0.0,   13.0,   0.00,   0.00, 1017.1,    0.2, -999.0
22-08-2023, 00:02:37,    205,    0.0,   13.0,   0.00,   0.00, 1017.1,    0.2, -999.0
22-08-2023, 00:02:47,    205,    0.0,   13.0,   0.00,   0.00, 1017.1,    0.1, -999.0
22-08-2023, 00:02:58,    205,    0.0,   13.0,   0.00,   0.00, 1017.1,    0.2, -999.0
22-08-2023, 00:03:07,    205,    0.0,   13.0,   0.00,   0.00, 1017.1,    0.2, -999.0
22-08-2023, 00:03:17,    205,    0.0,   13.0,   0.00,   0.00, 1017.1,    0.2, -999.0
22-08-2023, 00:03:27,    219,    0.2,   13.0,   0.00,   0.00, 1017.2,    0.3, -999.0
22-08-2023, 00:03:37,    219,    0.0,   12.9,   0.00,   0.00, 1017.1,    0.2, -999.0
22-08-2023, 00:03:47,    218,    0.0,   13.0,   0.00,   0.00, 1017.1,    0.2, -999.0
22-08-2023, 00:03:57,    218,    0.0,   13.0,   0.00,   0.00, 1017.1,    0.2, -999.0
22-08-2023, 00:04:07,    219,    0.0,   13.0,   0.00,   0.00, 1017.1,    0.2, -999.0
22-08-2023, 00:04:17,    219,    0.0,   13.0,   0.00,   0.00, 1017.1,    0.1, -999.0
22-08-2023, 00:04:27,    220,    0.0,   13.0,   0.00,   0.00, 1017.1,    0.3, -999.0
22-08-2023, 00:04:37,    218,    0.0,   12.9,   0.00,   0.00, 1017.1,    0.2, -999.0
22-08-2023, 00:04:47,    219,    0.0,   12.9,   0.00,   0.00, 1017.1,    0.3, -999.0
22-08-2023, 00:04:57,    218,    0.0,   12.9,   0.00,   0.00, 1017.1,    0.2, -999.0
22-08-2023, 00:05:07,    219,    0.0,   12.9,   0.00,   0.00, 1017.1,    0.2, -999.0
22-08-2023, 00:05:17,    220,    0.0,   13.0,   0.00,   0.00, 1017.1,    0.2, -999.0
22-08-2023, 00:05:27,    220,    0.0,   12.9,   0.00,   0.00, 1017.1,    0.2, -999.0
22-08-2023, 00:05:37,    220,    0.0,   12.9,   0.00,   0.00, 1017.1,    0.2, -999.0
22-08-2023, 00:05:47,    217,    0.0,   12.9,   0.00,   0.00, 1017.1,    0.1, -999.0
22-08-2023, 00:05:57,    217,    0.0,   12.9,   0.00,   0.00, 1017.2,    0.1, -999.0
22-08-2023, 00:06:07,    199,    0.2,   13.0,   0.00,   0.00, 1017.2,    0.5, -999.0
22-08-2023, 00:06:17,    198,    0.0,   13.0,   0.00,   0.00, 1017.1,    0.3, -999.0
22-08-2023, 00:06:27,    198,    0.0,   13.0,   0.00,   0.00, 1017.1,    0.4, -999.0
22-08-2023, 00:06:37,    198,    0.0,   13.0,   0.00,   0.00, 1017.1,    0.1, -999.0
22-08-2023, 00:06:46,    199,    0.0,   13.0,   0.00,   0.00, 1017.1,    0.1, -999.0
22-08-2023, 00:06:57,    198,    0.0,   12.9,   0.00,   0.00, 1017.1,    0.0, -999.0
22-08-2023, 00:07:07,    198,    0.0,   12.9,   0.00,   0.00, 1017.1,    0.1, -999.0
22-08-2023, 00:07:17,    198,    0.0,   12.9,   0.00,   0.00, 1017.1,    0.1, -999.0
22-08-2023, 00:07:27,    198,    0.0,   12.9,   0.00,   0.00, 1017.1,    0.3, -999.0
22-08-2023, 00:07:37,    199,    0.0,   12.9,   0.00,   0.00, 1017.1,    0.1, -999.0
22-08-2023, 00:07:47,    199,    0.0,   12.9,   0.00,   0.00, 1017.1,    0.2, -999.0
22-08-2023, 00:07:56,    199,    0.0,   12.9,   0.00,   0.00, 1017.0,    0.1, -999.0
22-08-2023, 00:08:06,    199,    0.0,   12.9,   0.00,   0.00, 1017.1,    0.1, -999.0
22-08-2023, 00:08:17,    198,    0.0,   12.9,   0.00,   0.00, 1017.1,    0.2, -999.0
22-08-2023, 00:08:26,    198,    0.1,   12.9,   0.00,   0.00, 1017.1,    0.3, -999.0
22-08-2023, 00:08:36,    189,    0.7,   13.1,   0.00,   0.00, 1017.2,    0.3, -999.0
22-08-2023, 00:08:47,    191,    0.0,   12.9,   0.00,   0.00, 1017.1,    0.2, -999.0
22-08-2023, 00:08:56,    191,    0.0,   12.9,   0.00,   0.00, 1017.1,    0.1, -999.0
22-08-2023, 00:09:06,    191,    0.0,   12.9,   0.00,   0.00, 1017.1,    0.2, -999.0
22-08-2023, 00:09:16,    191,    0.0,   12.9,   0.00,   0.00, 1017.1,    0.2, -999.0
22-08-2023, 00:09:26,    191,    0.0,   12.9,   0.00,   0.00, 1017.1,    0.2, -999.0
22-08-2023, 00:09:36,    191,    0.0,   12.9,   0.00,   0.00, 1017.1,    0.1, -999.0
22-08-2023, 00:09:46,    191,    0.0,   12.9,   0.00,   0.00, 1017.1,    0.1, -999.0
22-08-2023, 00:09:56,    190,    0.0,   13.0,   0.00,   0.00, 1017.0,    0.4, -999.0
22-08-2023, 00:10:06,    190,    0.0,   12.9,   0.00,   0.00, 1017.1,    0.2, -999.0
22-08-2023, 00:10:16,    190,    0.0,   12.9,   0.00,   0.00, 1017.1,    0.1, -999.0
22-08-2023, 00:10:26,    191,    0.0,   12.9,   0.00,   0.00, 1017.1,    0.2, -999.0
22-08-2023, 00:10:36,    191,    0.0,   12.9,   0.00,   0.00, 1017.1,    0.3, -999.0
22-08-2023, 00:10:46,    191,    0.0,   12.9,   0.00,   0.00, 1017.1,    0.2, -999.0
22-08-2023, 00:10:56,    190,    0.0,   12.8,   0.00,   0.00, 1017.1,    0.2, -999.0
22-08-2023, 00:11:06,    191,    0.0,   12.9,   0.00,   0.00, 1017.1,    0.4, -999.0
22-08-2023, 00:11:16,    192,    0.0,   12.9,   0.00,   0.00, 1017.1,    0.2, -999.0
22-08-2023, 00:11:26,    192,    0.0,   12.9,   0.00,   0.00, 1017.1,    0.1, -999.0
22-08-2023, 00:11:36,    192,    0.0,   12.8,   0.00,   0.00, 1017.1,    0.1, -999.0
22-08-2023, 00:11:46,    192,    0.0,   12.9,   0.00,   0.00, 1017.1,    0.1, -999.0
22-08-2023, 00:11:56,    191,    0.0,   12.9,   0.00,   0.00, 1017.1,    0.3, -999.0
22-08-2023, 00:12:06,    192,    0.0,   12.8,   0.00,   0.00, 1017.1,    0.1, -999.0
22-08-2023, 00:12:16,    192,    0.0,   12.9,   0.00,   0.00, 1017.1,    0.2, -999.0
22-08-2023, 00:12:26,    192,    0.0,   12.9,   0.00,   0.00, 1017.1,    0.2, -999.0
22-08-2023, 00:12:36,    192,    0.0,   12.9,   0.00,   0.00, 1017.1,    0.3, -999.0
22-08-2023, 00:12:46,    193,    0.0,   12.8,   0.00,   0.00, 1017.0,    0.1, -999.0
22-08-2023, 00:12:56,    193,    0.0,   12.8,   0.00,   0.00, 1017.1,    0.1, -999.0
22-08-2023, 00:13:06,    193,    0.0,   12.9,   0.00,   0.00, 1017.0,    0.1, -999.0
22-08-2023, 00:13:16,    193,    0.0,   12.9,   0.00,   0.00, 1017.1,    0.2, -999.0
22-08-2023, 00:13:26,    192,    0.0,   12.8,   0.00,   0.00, 1017.0,    0.2, -999.0
22-08-2023, 00:13:36,    192,    0.0,   12.9,   0.00,   0.00, 1017.0,    0.2, -999.0
22-08-2023, 00:13:45,    192,    0.0,   12.8,   0.00,   0.00, 1017.0,    0.2, -999.0
22-08-2023, 00:13:56,    193,    0.0,   12.8,   0.00,   0.00, 1017.0,    0.3, -999.0
22-08-2023, 00:14:06,    193,    0.0,   12.9,   0.00,   0.00, 1017.0,    0.3, -999.0
22-08-2023, 00:14:15,    192,    0.0,   12.9,   0.00,   0.00, 1017.0,    0.2, -999.0
22-08-2023, 00:14:25,    193,    0.0,   12.8,   0.00,   0.00, 1017.0,    0.2, -999.0
22-08-2023, 00:14:36,    193,    0.0,   12.9,   0.00,   0.00, 1017.0,    0.2, -999.0
22-08-2023, 00:14:46,    192,    0.0,   12.8,   0.00,   0.00, 1017.0,    0.3, -999.0
22-08-2023, 00:14:55,    192,    0.0,   12.9,   0.00,   0.00, 1017.0,    0.1, -999.0
22-08-2023, 00:15:05,    192,    0.0,   12.8,   0.00,   0.00, 1017.0,    0.2, -999.0
22-08-2023, 00:15:16,    192,    0.0,   12.8,   0.00,   0.00, 1017.0,    0.3, -999.0
22-08-2023, 00:15:25,    192,    0.0,   12.9,   0.00,   0.00, 1017.0,    0.1, -999.0
22-08-2023, 00:15:35,    192,    0.0,   12.8,   0.00,   0.00, 1017.0,    0.3, -999.0
22-08-2023, 00:15:45,    192,    0.0,   12.9,   0.00,   0.00, 1017.0,    0.3, -999.0
22-08-2023, 00:15:55,    192,    0.0,   12.9,   0.00,   0.00, 1016.9,    0.2, -999.0
22-08-2023, 00:16:05,    193,    0.0,   12.9,   0.00,   0.00, 1016.9,    0.2, -999.0
22-08-2023, 00:16:15,    192,    0.0,   12.8,   0.00,   0.00, 1016.9,    0.5, -999.0
22-08-2023, 00:16:25,    192,    0.0,   12.9,   0.00,   0.00, 1016.9,    0.2, -999.0
22-08-2023, 00:16:35,    192,    0.0,   12.9,   0.00,   0.00, 1016.9,    0.0, -999.0
22-08-2023, 00:16:45,    192,    0.0,   12.8,   0.00,   0.00, 1016.9,    0.3, -999.0
22-08-2023, 00:16:55,    192,    0.0,   12.8,   0.00,   0.00, 1016.9,    0.4, -999.0
22-08-2023, 00:17:05,    193,    0.0,   12.8,   0.00,   0.00, 1016.9,    0.1, -999.0
22-08-2023, 00:17:15,    193,    0.0,   12.8,   0.00,   0.00, 1016.9,    0.1, -999.0
22-08-2023, 00:17:25,    192,    0.0,   12.8,   0.00,   0.00, 1016.9,    0.3, -999.0
22-08-2023, 00:17:35,    193,    0.0,   12.8,   0.00,   0.00, 1016.9,    0.3, -999.0
22-08-2023, 00:17:45,    193,    0.0,   12.8,   0.00,   0.00, 1016.9,    0.2, -999.0
22-08-2023, 00:17:55,    193,    0.0,   12.8,   0.00,   0.00, 1016.9,    0.2, -999.0
22-08-2023, 00:18:05,    193,    0.0,   12.9,   0.00,   0.00, 1016.9,    0.2, -999.0
22-08-2023, 00:18:15,    197,    0.0,   12.8,   0.00,   0.00, 1016.9,    0.3, -999.0
22-08-2023, 00:18:25,    197,    0.0,   12.6,   0.00,   0.00, 1016.9,    0.3, -999.0
22-08-2023, 00:18:35,    197,    0.0,   12.8,   0.00,   0.00, 1016.9,    0.1, -999.0
22-08-2023, 00:18:45,    197,    0.0,   12.8,   0.00,   0.00, 1016.9,    0.3, -999.0
22-08-2023, 00:18:55,    197,    0.0,   12.8,   0.00,   0.00, 1016.9,    0.2, -999.0
22-08-2023, 00:19:05,    197,    0.0,   12.8,   0.00,   0.00, 1016.9,    0.2, -999.0
22-08-2023, 00:19:15,    197,    0.0,   12.8,   0.00,   0.00, 1016.9,    0.2, -999.0
22-08-2023, 00:19:25,    198,    0.0,   12.8,   0.00,   0.00, 1017.0,    0.3, -999.0
22-08-2023, 00:19:34,    198,    0.0,   12.9,   0.00,   0.00, 1016.9,    0.2, -999.0
22-08-2023, 00:19:45,    199,    0.0,   12.8,   0.00,   0.00, 1017.0,    0.2, -999.0
22-08-2023, 00:19:55,    199,    0.0,   12.8,   0.00,   0.00, 1017.0,    0.2, -999.0
22-08-2023, 00:20:04,    198,    0.0,   12.8,   0.00,   0.00, 1017.0,    0.3, -999.0
22-08-2023, 00:20:14,    199,    0.0,   12.8,   0.00,   0.00, 1017.0,    0.2, -999.0
22-08-2023, 00:20:25,    203,    0.2,   12.8,   0.00,   0.00, 1017.1,    0.2, -999.0
22-08-2023, 00:20:35,    203,    0.0,   12.8,   0.00,   0.00, 1017.0,    0.1, -999.0
22-08-2023, 00:20:44,    202,    0.0,   12.7,   0.00,   0.00, 1017.0,    0.2, -999.0
22-08-2023, 00:20:54,    202,    0.0,   12.8,   0.00,   0.00, 1017.0,    0.2, -999.0
22-08-2023, 00:21:04,    202,    0.0,   12.8,   0.00,   0.00, 1017.0,    0.2, -999.0
22-08-2023, 00:21:14,    202,    0.0,   12.8,   0.00,   0.00, 1017.0,    0.2, -999.0
22-08-2023, 00:21:24,    203,    0.0,   12.8,   0.00,   0.00, 1017.0,    0.2, -999.0
22-08-2023, 00:21:34,    203,    0.0,   12.8,   0.00,   0.00, 1017.0,    0.2, -999.0
22-08-2023, 00:21:44,    202,    0.0,   12.8,   0.00,   0.00, 1017.0,    0.3, -999.0
22-08-2023, 00:21:54,    187,    0.0,   12.8,   0.00,   0.00, 1017.0,    0.2, -999.0
22-08-2023, 00:22:04,    186,    0.0,   12.8,   0.00,   0.00, 1016.9,    0.1, -999.0
22-08-2023, 00:22:14,    186,    0.0,   12.8,   0.00,   0.00, 1017.0,    0.2, -999.0
22-08-2023, 00:22:24,    161,    0.7,   12.8,   0.00,   0.00, 1017.1,    0.3, -999.0
22-08-2023, 00:22:34,    164,    0.0,   12.8,   0.00,   0.00, 1017.0,    0.1, -999.0
22-08-2023, 00:22:44,    177,    0.4,   12.9,   0.00,   0.00, 1017.1,    0.2, -999.0
22-08-2023, 00:22:54,    230,    0.1,   12.8,   0.00,   0.00, 1017.1,    0.1, -999.0
22-08-2023, 00:23:04,    230,    0.2,   12.9,   0.00,   0.00, 1017.1,    0.3, -999.0
22-08-2023, 00:23:14,    230,    0.0,   12.8,   0.00,   0.00, 1017.0,    0.2, -999.0
22-08-2023, 00:23:24,    230,    0.0,   12.8,   0.00,   0.00, 1017.0,    0.3, -999.0
22-08-2023, 00:23:34,    231,    0.0,   12.8,   0.00,   0.00, 1017.0,    0.3, -999.0
22-08-2023, 00:23:44,    230,    0.0,   12.8,   0.00,   0.00, 1017.0,    0.2, -999.0
22-08-2023, 00:23:54,    212,    0.0,   12.8,   0.00,   0.00, 1017.0,    0.3, -999.0
22-08-2023, 00:24:04,    212,    0.0,   12.8,   0.00,   0.00, 1017.0,    0.2, -999.0
22-08-2023, 00:24:14,    213,    0.0,   12.8,   0.00,   0.00, 1017.0,    0.2, -999.0
22-08-2023, 00:24:24,    213,    0.0,   12.8,   0.00,   0.00, 1017.0,    0.2, -999.0
22-08-2023, 00:24:34,    212,    0.0,   12.7,   0.00,   0.00, 1017.0,    0.2, -999.0
22-08-2023, 00:24:44,    212,    0.0,   12.8,   0.00,   0.00, 1017.0,    0.2, -999.0
22-08-2023, 00:24:54,    212,    0.0,   12.8,   0.00,   0.00, 1017.0,    0.1, -999.0
22-08-2023, 00:25:04,    212,    0.0,   12.8,   0.00,   0.00, 1017.0,    0.1, -999.0
22-08-2023, 00:25:14,    212,    0.0,   12.8,   0.00,   0.00, 1017.0,    0.2, -999.0
22-08-2023, 00:25:23,    212,    0.0,   12.8,   0.00,   0.00, 1017.0,    0.1, -999.0
22-08-2023, 00:25:34,    212,    0.0,   12.7,   0.00,   0.00, 1017.0,    0.2, -999.0
22-08-2023, 00:25:44,    212,    0.0,   12.7,   0.00,   0.00, 1017.0,    0.1, -999.0
22-08-2023, 00:25:54,    212,    0.0,   12.8,   0.00,   0.00, 1017.0,    0.2, -999.0
22-08-2023, 00:26:03,    212,    0.0,   12.8,   0.00,   0.00, 1017.0,    0.3, -999.0
22-08-2023, 00:26:14,    213,    0.0,   12.7,   0.00,   0.00, 1017.0,    0.2, -999.0
22-08-2023, 00:26:24,    212,    0.0,   12.8,   0.00,   0.00, 1017.0,    0.2, -999.0
22-08-2023, 00:26:33,    212,    0.0,   12.8,   0.00,   0.00, 1017.0,    0.2, -999.0
22-08-2023, 00:26:43,    212,    0.0,   12.7,   0.00,   0.00, 1017.0,    0.2, -999.0
22-08-2023, 00:26:54,    212,    0.0,   12.7,   0.00,   0.00, 1017.0,    0.1, -999.0
22-08-2023, 00:27:03,    212,    0.0,   12.7,   0.00,   0.00, 1017.1,    0.3, -999.0
22-08-2023, 00:27:13,    212,    0.0,   12.7,   0.00,   0.00, 1017.0,    0.2, -999.0
22-08-2023, 00:27:23,    212,    0.0,   12.7,   0.00,   0.00, 1017.0,    0.2, -999.0
22-08-2023, 00:27:33,    212,    0.0,   12.8,   0.00,   0.00, 1017.0,    0.2, -999.0
22-08-2023, 00:27:43,    212,    0.0,   12.8,   0.00,   0.00, 1017.1,    0.1, -999.0
22-08-2023, 00:27:53,    212,    0.0,   12.7,   0.00,   0.00, 1017.1,    0.2, -999.0
22-08-2023, 00:28:03,    213,    0.0,   12.8,   0.00,   0.00, 1017.0,    0.2, -999.0
22-08-2023, 00:28:13,    212,    0.0,   12.8,   0.00,   0.00, 1017.0,    0.1, -999.0
22-08-2023, 00:28:23,    211,    0.0,   12.7,   0.00,   0.00, 1017.0,    0.1, -999.0
22-08-2023, 00:28:33,    212,    0.0,   12.7,   0.00,   0.00, 1017.0,    0.3, -999.0
22-08-2023, 00:28:43,    213,    0.0,   12.8,   0.00,   0.00, 1017.0,    0.3, -999.0
22-08-2023, 00:28:53,    212,    0.0,   12.7,   0.00,   0.00, 1017.0,    0.2, -999.0
22-08-2023, 00:29:03,    212,    0.0,   12.7,   0.00,   0.00, 1017.0,    0.2, -999.0
22-08-2023, 00:29:13,    212,    0.0,   12.7,   0.00,   0.00, 1017.0,    0.2, -999.0
22-08-2023, 00:29:23,    212,    0.0,   12.7,   0.00,   0.00, 1017.0,    0.2, -999.0
22-08-2023, 00:29:33,    212,    0.0,   12.7,   0.00,   0.00, 1017.0,    0.1, -999.0
22-08-2023, 00:29:43,    212,    0.0,   12.7,   0.00,   0.00, 1017.0,    0.2, -999.0
22-08-2023, 00:29:53,    213,    0.0,   12.7,   0.00,   0.00, 1017.0,    0.1, -999.0
22-08-2023, 00:30:03,    213,    0.0,   12.7,   0.00,   0.00, 1017.0,    0.2, -999.0
22-08-2023, 00:30:13,    212,    0.0,   12.7,   0.00,   0.00, 1017.0,    0.1, -999.0
22-08-2023, 00:30:23,    212,    0.0,   12.7,   0.00,   0.00, 1017.0,    0.2, -999.0
22-08-2023, 00:30:33,    212,    0.0,   12.7,   0.00,   0.00, 1017.0,    0.3, -999.0
22-08-2023, 00:30:43,    212,    0.0,   12.7,   0.00,   0.00, 1017.0,    0.1, -999.0
22-08-2023, 00:30:53,    213,    0.0,   12.7,   0.00,   0.00, 1017.0,    0.1, -999.0
22-08-2023, 00:31:03,    212,    0.0,   12.7,   0.00,   0.00, 1017.0,    0.2, -999.0
22-08-2023, 00:31:13,    212,    0.0,   12.7,   0.00,   0.00, 1017.0,    0.2, -999.0
22-08-2023, 00:31:22,    212,    0.0,   12.7,   0.00,   0.00, 1016.9,    0.1, -999.0
22-08-2023, 00:31:33,    212,    0.0,   12.6,   0.00,   0.00, 1017.0,    0.3, -999.0
22-08-2023, 00:31:43,    212,    0.0,   12.6,   0.00,   0.00, 1017.0,    0.3, -999.0
22-08-2023, 00:31:52,    212,    0.0,   12.7,   0.00,   0.00, 1017.0,    0.2, -999.0
22-08-2023, 00:32:03,    213,    0.0,   12.7,   0.00,   0.00, 1016.9,    0.3, -999.0
22-08-2023, 00:32:13,    212,    0.0,   12.7,   0.00,   0.00, 1016.9,    0.2, -999.0
22-08-2023, 00:32:22,    212,    0.0,   12.7,   0.00,   0.00, 1017.0,    0.1, -999.0
22-08-2023, 00:32:32,    212,    0.0,   12.6,   0.00,   0.00, 1016.9,    0.3, -999.0
22-08-2023, 00:32:43,    212,    0.0,   12.7,   0.00,   0.00, 1016.9,    0.3, -999.0
22-08-2023, 00:32:52,    213,    0.0,   12.7,   0.00,   0.00, 1016.9,    0.3, -999.0
22-08-2023, 00:33:02,    212,    0.0,   12.7,   0.00,   0.00, 1016.9,    0.2, -999.0
22-08-2023, 00:33:12,    211,    0.0,   12.6,   0.00,   0.00, 1016.9,    0.3, -999.0
22-08-2023, 00:33:23,    213,    0.0,   12.6,   0.00,   0.00, 1016.9,    0.2, -999.0
22-08-2023, 00:33:32,    212,    0.0,   12.6,   0.00,   0.00, 1016.9,    0.2, -999.0
22-08-2023, 00:33:42,    213,    0.0,   12.6,   0.00,   0.00, 1016.9,    0.3, -999.0
22-08-2023, 00:33:52,    212,    0.0,   12.6,   0.00,   0.00, 1016.9,    0.3, -999.0
22-08-2023, 00:34:02,    212,    0.0,   12.6,   0.00,   0.00, 1016.9,    0.3, -999.0
22-08-2023, 00:34:12,    212,    0.0,   12.6,   0.00,   0.00, 1016.9,    0.1, -999.0
22-08-2023, 00:34:22,    212,    0.0,   12.7,   0.00,   0.00, 1016.9,    0.2, -999.0
22-08-2023, 00:34:32,    211,    0.0,   12.7,   0.00,   0.00, 1016.9,    0.3, -999.0
22-08-2023, 00:34:42,    212,    0.0,   12.6,   0.00,   0.00, 1016.9,    0.2, -999.0
22-08-2023, 00:34:52,    212,    0.0,   12.6,   0.00,   0.00, 1016.9,    0.2, -999.0
22-08-2023, 00:35:02,    212,    0.0,   12.7,   0.00,   0.00, 1016.9,    0.2, -999.0
22-08-2023, 00:35:12,    212,    0.0,   12.6,   0.00,   0.00, 1016.9,    0.2, -999.0
22-08-2023, 00:35:22,    212,    0.0,   12.6,   0.00,   0.00, 1016.9,    0.2, -999.0
22-08-2023, 00:35:32,    213,    0.0,   12.6,   0.00,   0.00, 1016.9,    0.3, -999.0
22-08-2023, 00:35:42,    212,    0.0,   12.6,   0.00,   0.00, 1016.9,    0.2, -999.0
22-08-2023, 00:35:52,    212,    0.0,   12.6,   0.00,   0.00, 1016.9,    0.3, -999.0
22-08-2023, 00:36:02,    212,    0.0,   12.6,   0.00,   0.00, 1016.9,    0.2, -999.0
22-08-2023, 00:36:12,    212,    0.0,   12.6,   0.00,   0.00, 1016.9,    0.2, -999.0
22-08-2023, 00:36:22,    212,    0.0,   12.6,   0.00,   0.00, 1016.9,    0.2, -999.0
22-08-2023, 00:36:32,    213,    0.0,   12.6,   0.00,   0.00, 1016.9,    0.2, -999.0
22-08-2023, 00:36:42,    213,    0.0,   12.6,   0.00,   0.00, 1016.9,    0.2, -999.0
22-08-2023, 00:36:52,    212,    0.0,   12.6,   0.00,   0.00, 1016.9,    0.1, -999.0
22-08-2023, 00:37:02,    212,    0.0,   12.5,   0.00,   0.00, 1016.9,    0.2, -999.0
22-08-2023, 00:37:11,    212,    0.0,   12.6,   0.00,   0.00, 1016.9,    0.4, -999.0
22-08-2023, 00:37:22,    220,    0.0,   12.6,   0.00,   0.00, 1016.9,    0.0, -999.0
22-08-2023, 00:37:32,    219,    0.0,   12.6,   0.00,   0.00, 1016.9,    0.2, -999.0
22-08-2023, 00:37:41,    219,    0.0,   12.6,   0.00,   0.00, 1016.9,    0.1, -999.0
22-08-2023, 00:37:52,    219,    0.0,   12.6,   0.00,   0.00, 1016.9,    0.1, -999.0
22-08-2023, 00:38:02,    219,    0.0,   12.6,   0.00,   0.00, 1016.9,    0.2, -999.0
22-08-2023, 00:38:11,    219,    0.0,   12.7,   0.00,   0.00, 1016.9,    0.3, -999.0
22-08-2023, 00:38:21,    220,    0.0,   12.6,   0.00,   0.00, 1016.9,    0.1, -999.0
22-08-2023, 00:38:32,    220,    0.0,   12.6,   0.00,   0.00, 1016.9,    0.2, -999.0
22-08-2023, 00:38:41,    220,    0.0,   12.6,   0.00,   0.00, 1016.9,    0.2, -999.0
22-08-2023, 00:38:51,    220,    0.0,   12.6,   0.00,   0.00, 1016.9,    0.2, -999.0
22-08-2023, 00:39:01,    220,    0.0,   12.6,   0.00,   0.00, 1016.9,    0.1, -999.0
22-08-2023, 00:39:12,    220,    0.0,   12.6,   0.00,   0.00, 1016.9,    0.1, -999.0
22-08-2023, 00:39:21,    220,    0.0,   12.6,   0.00,   0.00, 1016.9,    0.3, -999.0
22-08-2023, 00:39:31,    219,    0.0,   12.6,   0.00,   0.00, 1016.9,    0.2, -999.0
22-08-2023, 00:39:41,    219,    0.0,   12.6,   0.00,   0.00, 1016.9,    0.2, -999.0
22-08-2023, 00:39:51,    219,    0.0,   12.6,   0.00,   0.00, 1016.9,    0.1, -999.0
22-08-2023, 00:40:01,    219,    0.0,   12.6,   0.00,   0.00, 1016.9,    0.2, -999.0
22-08-2023, 00:40:11,    219,    0.0,   12.6,   0.00,   0.00, 1016.9,    0.1, -999.0
22-08-2023, 00:40:21,    219,    0.0,   12.7,   0.00,   0.00, 1016.9,    0.3, -999.0
22-08-2023, 00:40:31,    216,    0.0,   12.6,   0.00,   0.00, 1016.9,    0.3, -999.0
22-08-2023, 00:40:41,    220,    0.0,   12.6,   0.00,   0.00, 1016.9,    0.3, -999.0
22-08-2023, 00:40:51,    210,    0.0,   12.6,   0.00,   0.00, 1016.9,    0.2, -999.0
22-08-2023, 00:41:01,    205,    0.1,   12.6,   0.00,   0.00, 1016.9,    0.2, -999.0
22-08-2023, 00:41:11,    204,    0.3,   12.6,   0.00,   0.00, 1017.0,    0.3, -999.0
22-08-2023, 00:41:21,    192,    0.1,   12.6,   0.00,   0.00, 1016.9,    0.1, -999.0
22-08-2023, 00:41:31,    192,    0.0,   12.6,   0.00,   0.00, 1016.9,    0.3, -999.0
22-08-2023, 00:41:41,    192,    0.0,   12.6,   0.00,   0.00, 1016.9,    0.2, -999.0
22-08-2023, 00:41:51,    192,    0.0,   12.6,   0.00,   0.00, 1016.9,    0.1, -999.0
22-08-2023, 00:42:01,    192,    0.0,   12.5,   0.00,   0.00, 1016.9,    0.2, -999.0
22-08-2023, 00:42:11,    192,    0.0,   12.6,   0.00,   0.00, 1016.9,    0.3, -999.0
22-08-2023, 00:42:21,    192,    0.0,   12.6,   0.00,   0.00, 1016.9,    0.2, -999.0
22-08-2023, 00:42:31,    192,    0.0,   12.6,   0.00,   0.00, 1016.9,    0.1, -999.0
22-08-2023, 00:42:41,    192,    0.0,   12.6,   0.00,   0.00, 1016.9,    0.1, -999.0
22-08-2023, 00:42:51,    191,    0.0,   12.6,   0.00,   0.00, 1016.9,    0.2, -999.0
22-08-2023, 00:43:01,    192,    0.0,   12.6,   0.00,   0.00, 1016.9,    0.1, -999.0
22-08-2023, 00:43:11,    192,    0.0,   12.6,   0.00,   0.00, 1016.9,    0.2, -999.0
22-08-2023, 00:43:21,    193,    0.0,   12.5,   0.00,   0.00, 1016.9,    0.1, -999.0
22-08-2023, 00:43:30,    193,    0.0,   12.6,   0.00,   0.00, 1016.9,    0.2, -999.0
22-08-2023, 00:43:41,    192,    0.0,   12.5,   0.00,   0.00, 1016.9,    0.2, -999.0
22-08-2023, 00:43:51,    193,    0.0,   12.5,   0.00,   0.00, 1016.9,    0.1, -999.0
22-08-2023, 00:44:00,    192,    0.0,   12.6,   0.00,   0.00, 1016.9,    0.3, -999.0
22-08-2023, 00:44:10,    193,    0.0,   12.6,   0.00,   0.00, 1016.9,    0.3, -999.0
22-08-2023, 00:44:21,    192,    0.2,   12.6,   0.00,   0.00, 1016.9,    0.3, -999.0
22-08-2023, 00:44:30,    192,    0.5,   12.7,   0.00,   0.00, 1017.0,    0.2, -999.0
22-08-2023, 00:44:40,    192,    0.5,   12.7,   0.00,   0.00, 1016.9,    0.2, -999.0
22-08-2023, 00:44:51,    192,    0.3,   12.6,   0.00,   0.00, 1016.9,    0.3, -999.0
22-08-2023, 00:45:00,    192,    0.1,   12.7,   0.00,   0.00, 1016.9,    0.1, -999.0
22-08-2023, 00:45:10,    192,    0.0,   12.6,   0.00,   0.00, 1016.9,    0.2, -999.0
22-08-2023, 00:45:20,    192,    0.0,   12.6,   0.00,   0.00, 1016.8,    0.1, -999.0
22-08-2023, 00:45:30,    192,    0.0,   12.5,   0.00,   0.00, 1016.9,    0.1, -999.0
22-08-2023, 00:45:40,    192,    0.0,   12.5,   0.00,   0.00, 1016.8,    0.2, -999.0
22-08-2023, 00:45:50,    191,    0.0,   12.5,   0.00,   0.00, 1016.9,    0.1, -999.0
22-08-2023, 00:46:00,    192,    0.0,   12.6,   0.00,   0.00, 1016.8,    0.1, -999.0
22-08-2023, 00:46:10,    192,    0.0,   12.5,   0.00,   0.00, 1016.8,    0.3, -999.0
22-08-2023, 00:46:20,    192,    0.0,   12.6,   0.00,   0.00, 1016.9,    0.2, -999.0
22-08-2023, 00:46:30,    192,    0.0,   12.5,   0.00,   0.00, 1016.8,    0.1, -999.0
22-08-2023, 00:46:40,    192,    0.0,   12.5,   0.00,   0.00, 1016.8,    0.1, -999.0
22-08-2023, 00:46:50,    192,    0.0,   12.5,   0.00,   0.00, 1016.8,    0.2, -999.0